COSMOS 1707

Satellite information

Favourite Embed

Satellite Type and Status

PAYLOADIN ORBIT

Key statistics

Satellite COSMOS 1707 at a glance.

Uptime

14392

Days in orbit

Revolutions

≈ 15.5

Per day

Orbit

LEO

Low Earth Orbit

Inclination

82.5

Latest

Satellite identification and parameters

Extended collection of information and parameters for COSMOS 1707.

Object identification

Identified? True

Debris? False

Object name: COSMOS 1707

International designator: 1985-113A

Object number (NORAD): 16326

Object ID (CCSDS): 16326

Country: COMMONWEALTH OF INDEPENDENT STATES (CIS)

Current information (Y/N): Y

RCS size: LARGE

Orbital parameters

Period: 93.19 minutes

Inclination: 82.4969 deg

SMA: 6808.844 km

Apoapsis: 433.664 km

Periapsis: 427.754 km

RAAN: 234.0333 deg

Eccentricy: 0.000434

Argument of periapsis: 359.8016 deg

Mean anomaly: 0.3229 deg

Mean motion: 15.45228561 rev/day

Mean motion (dot): 0.00021106 rev/day2

B* drag term: 0.00044292 1/REarth

Two-line elements (TLE)

Creation date: May 8, 2025, 3:01 a.m.

Reference frame: TEME

Reference center: EARTH

Epoch: May 7, 2025, 6:30 p.m. UTC

TLE line 0: 0 COSMOS 1707

TLE line 1: 1 16326U 85113A 25127.77089242 .00021106 00000-0 44292-3 0 9996

TLE line 2: 2 16326 82.4969 234.0333 0004340 359.8016 0.3229 15.45228561154329

Live tracking on map

Real-time ground track for satellite COSMOS 1707.

In-orbit conjunctions

There are no conjunctions computed for COSMOS 1707, at the moment. Check back to stay up to date, as we update our databases every day.

Go to all conjunctions

Associated space launch

Tselina-D satellites provided detailed observation of radio sources detected by the smaller Tselina-O satellites as part of the Tselina ELINT system.

COSMOS 1707 was lifted into orbit during the mission ‘Tsiklon-3 | Tselina-D 52’, on board a Tsiklon-3 space rocket.

The launch took place on Dec. 12, 1985, 3:51 p.m. from 32/1.

For more information about the launch, click the button.

Launch to space Tsiklon-3 | Tselina-D 52
Tsiklon-3 | Tselina-D 52

Agency: N/A

Status: Launch Successful

Launch date: Dec. 12, 1985, 3:51 p.m. UTC

Rocket: Tsiklon-3

Launch pad: 32/1

Location: Plesetsk Cosmodrome, Russian Federation

...

Latest news about this satellite

There are no fresh news available about this satellite. Check back as we update our databases every day.


Newsletter sign-up

Weekly statistics, charts and insights to help you stay on top of the space industry.